Time,TemperatureF,DewpointF,PressureIn,WindDirection,WindDirectionDegrees,WindSpeedMPH,WindSpeedGustMPH,Humidity,HourlyPrecipIn,Conditions,Clouds,dailyrainin,SoftwareType,DateUTC
2013-07-08 00:00:00,67.5,65.7,30.16,WNW,288,0.0,0.0,94,0.00,,,0.00,Wunderground v.1.15,2013-07-08 04:00:00,
2013-07-08 00:05:00,67.5,65.7,30.16,WNW,288,0.0,0.0,94,0.00,,,0.00,Wunderground v.1.15,2013-07-08 04:05:00,
2013-07-08 00:10:00,67.4,65.6,30.16,WNW,288,0.0,0.0,94,0.00,,,0.00,Wunderground v.1.15,2013-07-08 04:10:00,
2013-07-08 00:15:00,67.4,65.6,30.16,WNW,288,0.0,0.0,94,0.00,,,0.00,Wunderground v.1.15,2013-07-08 04:15:00,
2013-07-08 00:20:00,67.4,65.6,30.16,WNW,288,0.0,0.0,94,0.00,,,0.00,Wunderground v.1.15,2013-07-08 04:20:00,
2013-07-08 00:25:00,67.4,65.6,30.16,WNW,288,0.0,0.0,94,0.00,,,0.00,Wunderground v.1.15,2013-07-08 04:25:00,
2013-07-08 00:30:00,67.3,65.5,30.16,WNW,288,0.0,0.0,94,0.00,,,0.00,Wunderground v.1.15,2013-07-08 04:30:00,
2013-07-08 00:35:00,67.2,65.4,30.16,WNW,288,0.0,0.0,94,0.00,,,0.00,Wunderground v.1.15,2013-07-08 04:35:00,
2013-07-08 00:40:00,67.1,65.3,30.16,WNW,288,0.0,0.0,94,0.00,,,0.00,Wunderground v.1.15,2013-07-08 04:40:00,
2013-07-08 00:45:00,67.1,65.3,30.16,WNW,288,0.0,0.0,94,0.00,,,0.00,Wunderground v.1.15,2013-07-08 04:45:00,
2013-07-08 00:55:00,67.0,65.2,30.16,WNW,288,0.0,0.0,94,0.00,,,0.00,Wunderground v.1.15,2013-07-08 04:55:00,
2013-07-08 01:00:00,67.0,65.2,30.16,WNW,288,0.0,0.0,94,0.00,,,0.00,Wunderground v.1.15,2013-07-08 05:00:00,
2013-07-08 01:10:00,67.0,65.2,30.16,WNW,288,0.0,0.0,94,0.00,,,0.00,Wunderground v.1.15,2013-07-08 05:10:00,
2013-07-08 01:15:00,66.8,65.0,30.16,WNW,288,0.0,0.0,94,0.00,,,0.00,Wunderground v.1.15,2013-07-08 05:15:00,
2013-07-08 01:25:00,66.5,64.7,30.16,WNW,288,0.0,0.0,94,0.00,,,0.00,Wunderground v.1.15,2013-07-08 05:25:00,
2013-07-08 01:30:00,66.4,64.6,30.16,WNW,288,0.0,0.0,94,0.00,,,0.00,Wunderground v.1.15,2013-07-08 05:30:00,
2013-07-08 01:40:00,66.4,64.6,30.16,WNW,288,0.0,0.0,94,0.00,,,0.00,Wunderground v.1.15,2013-07-08 05:40:00,
2013-07-08 01:45:00,66.3,64.5,30.16,WNW,288,0.0,0.0,94,0.00,,,0.00,Wunderground v.1.15,2013-07-08 05:45:00,
2013-07-08 01:55:00,66.1,64.3,30.16,WNW,288,0.0,1.0,94,0.00,,,0.00,Wunderground v.1.15,2013-07-08 05:55:00,
2013-07-08 02:00:00,66.0,64.2,30.16,WNW,288,0.0,0.0,94,0.00,,,0.00,Wunderground v.1.15,2013-07-08 06:00:00,
2013-07-08 02:05:00,66.0,64.2,30.16,WNW,288,0.0,0.0,94,0.00,,,0.00,Wunderground v.1.15,2013-07-08 06:05:00,
2013-07-08 02:10:00,66.1,64.3,30.16,WNW,288,0.0,0.0,94,0.00,,,0.00,Wunderground v.1.15,2013-07-08 06:10:00,
2013-07-08 02:20:00,66.1,64.3,30.16,WNW,288,0.0,0.0,94,0.00,,,0.00,Wunderground v.1.15,2013-07-08 06:20:00,
2013-07-08 02:25:00,66.1,64.6,30.16,WNW,288,0.0,0.0,95,0.00,,,0.00,Wunderground v.1.15,2013-07-08 06:25:00,
2013-07-08 02:30:00,66.2,64.7,30.16,WNW,288,0.0,0.0,95,0.00,,,0.00,Wunderground v.1.15,2013-07-08 06:30:00,
2013-07-08 02:40:00,66.0,64.2,30.16,WNW,288,0.0,0.0,94,0.00,,,0.00,Wunderground v.1.15,2013-07-08 06:40:00,
2013-07-08 02:45:00,66.0,64.2,30.16,WNW,288,0.0,0.0,94,0.00,,,0.00,Wunderground v.1.15,2013-07-08 06:45:00,
2013-07-08 02:50:00,66.0,64.2,30.16,WNW,288,0.0,0.0,94,0.00,,,0.00,Wunderground v.1.15,2013-07-08 06:50:00,
2013-07-08 02:55:00,66.0,64.2,30.16,WNW,288,0.0,0.0,94,0.00,,,0.00,Wunderground v.1.15,2013-07-08 06:55:00,
2013-07-08 03:00:00,66.0,64.5,30.17,WNW,288,0.0,0.0,95,0.00,,,0.00,Wunderground v.1.15,2013-07-08 07:00:00,
2013-07-08 03:10:00,66.0,64.5,30.17,WNW,288,0.0,0.0,95,0.00,,,0.00,Wunderground v.1.15,2013-07-08 07:10:00,
2013-07-08 03:15:00,66.1,64.6,30.16,WNW,288,0.0,0.0,95,0.00,,,0.00,Wunderground v.1.15,2013-07-08 07:15:00,
2013-07-08 03:25:00,65.8,64.0,30.16,WNW,288,0.0,0.0,94,0.00,,,0.00,Wunderground v.1.15,2013-07-08 07:25:00,
2013-07-08 03:30:00,65.7,64.2,30.16,WNW,288,0.0,0.0,95,0.00,,,0.00,Wunderground v.1.15,2013-07-08 07:30:00,
2013-07-08 03:35:00,65.6,64.1,30.16,WNW,288,0.0,0.0,95,0.00,,,0.00,Wunderground v.1.15,2013-07-08 07:35:00,
2013-07-08 03:40:00,65.5,64.0,30.17,WNW,288,0.0,0.0,95,0.00,,,0.00,Wunderground v.1.15,2013-07-08 07:40:00,
2013-07-08 03:45:00,65.3,63.5,30.16,WNW,288,0.0,0.0,94,0.00,,,0.00,Wunderground v.1.15,2013-07-08 07:45:00,
2013-07-08 03:55:00,65.1,63.3,30.17,WNW,288,0.0,0.0,94,0.00,,,0.00,Wunderground v.1.15,2013-07-08 07:55:00,
2013-07-08 04:00:00,65.2,63.4,30.17,WNW,288,0.0,0.0,94,0.00,,,0.00,Wunderground v.1.15,2013-07-08 08:00:00,
2013-07-08 04:10:00,65.1,63.3,30.17,WNW,288,0.0,0.0,94,0.00,,,0.00,Wunderground v.1.15,2013-07-08 08:10:00,
2013-07-08 04:15:00,65.1,63.3,30.17,WNW,288,0.0,0.0,94,0.00,,,0.00,Wunderground v.1.15,2013-07-08 08:15:00,
2013-07-08 04:20:00,65.0,63.5,30.17,WNW,288,0.0,0.0,95,0.00,,,0.00,Wunderground v.1.15,2013-07-08 08:20:00,
2013-07-08 04:25:00,64.9,63.4,30.17,WNW,288,0.0,0.0,95,0.00,,,0.00,Wunderground v.1.15,2013-07-08 08:25:00,
2013-07-08 04:30:00,65.0,63.5,30.16,WNW,288,0.0,0.0,95,0.00,,,0.00,Wunderground v.1.15,2013-07-08 08:30:00,
2013-07-08 04:40:00,65.0,63.5,30.17,WNW,288,0.0,0.0,95,0.00,,,0.00,Wunderground v.1.15,2013-07-08 08:40:00,
2013-07-08 04:45:00,65.0,63.5,30.17,WNW,288,0.0,0.0,95,0.00,,,0.00,Wunderground v.1.15,2013-07-08 08:45:00,
2013-07-08 04:50:00,65.1,63.6,30.17,WNW,288,0.0,0.0,95,0.00,,,0.00,Wunderground v.1.15,2013-07-08 08:50:00,
2013-07-08 04:55:00,65.1,63.6,30.17,WNW,288,0.0,0.0,95,0.00,,,0.00,Wunderground v.1.15,2013-07-08 08:55:00,
2013-07-08 05:05:00,65.2,63.7,30.17,WNW,288,0.0,0.0,95,0.00,,,0.00,Wunderground v.1.15,2013-07-08 09:05:00,
2013-07-08 05:10:00,65.3,63.8,30.17,WNW,288,0.0,0.0,95,0.00,,,0.00,Wunderground v.1.15,2013-07-08 09:10:00,
2013-07-08 05:15:00,65.4,63.9,30.17,WNW,288,0.0,0.0,95,0.00,,,0.00,Wunderground v.1.15,2013-07-08 09:15:00,
2013-07-08 05:25:00,65.4,63.9,30.17,WNW,288,0.0,0.0,95,0.00,,,0.00,Wunderground v.1.15,2013-07-08 09:25:00,
2013-07-08 05:30:00,65.4,63.9,30.17,WNW,288,0.0,0.0,95,0.00,,,0.00,Wunderground v.1.15,2013-07-08 09:30:00,
2013-07-08 05:35:00,65.4,63.9,30.17,WNW,288,0.0,0.0,95,0.00,,,0.00,Wunderground v.1.15,2013-07-08 09:35:00,
2013-07-08 05:40:00,65.4,63.9,30.17,WNW,288,0.0,0.0,95,0.00,,,0.00,Wunderground v.1.15,2013-07-08 09:40:00,
2013-07-08 05:45:00,65.4,63.9,30.17,WNW,288,0.0,0.0,95,0.00,,,0.00,Wunderground v.1.15,2013-07-08 09:45:00,
2013-07-08 05:55:00,65.4,63.9,30.18,WNW,288,0.0,0.0,95,0.00,,,0.00,Wunderground v.1.15,2013-07-08 09:55:00,
2013-07-08 06:00:00,65.5,64.0,30.18,WNW,288,0.0,0.0,95,0.00,,,0.00,Wunderground v.1.15,2013-07-08 10:00:00,
2013-07-08 06:10:00,65.5,64.0,30.18,WNW,288,0.0,0.0,95,0.00,,,0.00,Wunderground v.1.15,2013-07-08 10:10:00,
2013-07-08 06:20:00,65.3,63.8,30.18,WNW,288,0.0,0.0,95,0.00,,,0.00,Wunderground v.1.15,2013-07-08 10:20:00,
2013-07-08 06:25:00,65.3,63.8,30.18,WNW,288,0.0,0.0,95,0.00,,,0.00,Wunderground v.1.15,2013-07-08 10:25:00,
2013-07-08 06:30:00,65.3,63.8,30.18,WNW,288,0.0,0.0,95,0.00,,,0.00,Wunderground v.1.15,2013-07-08 10:30:00,
2013-07-08 06:40:00,65.3,63.8,30.18,WNW,288,0.0,0.0,95,0.00,,,0.00,Wunderground v.1.15,2013-07-08 10:40:00,
2013-07-08 06:45:00,65.4,63.9,30.18,WNW,288,0.0,0.0,95,0.00,,,0.00,Wunderground v.1.15,2013-07-08 10:45:00,
2013-07-08 06:55:00,65.5,64.0,30.18,WNW,288,0.0,0.0,95,0.00,,,0.00,Wunderground v.1.15,2013-07-08 10:55:00,
2013-07-08 07:00:00,65.5,64.0,30.19,WNW,288,0.0,0.0,95,0.00,,,0.00,Wunderground v.1.15,2013-07-08 11:00:00,
2013-07-08 07:05:00,65.6,64.1,30.19,WNW,288,0.0,0.0,95,0.00,,,0.00,Wunderground v.1.15,2013-07-08 11:05:00,
2013-07-08 07:10:00,65.7,64.2,30.19,WNW,288,0.0,0.0,95,0.00,,,0.00,Wunderground v.1.15,2013-07-08 11:10:00,
2013-07-08 07:15:00,65.8,64.3,30.19,WNW,288,0.0,0.0,95,0.00,,,0.00,Wunderground v.1.15,2013-07-08 11:15:00,
2013-07-08 07:25:00,65.8,64.3,30.19,WNW,288,0.0,0.0,95,0.00,,,0.00,Wunderground v.1.15,2013-07-08 11:25:00,
2013-07-08 07:30:00,65.8,64.3,30.19,WNW,288,0.0,0.0,95,0.00,,,0.00,Wunderground v.1.15,2013-07-08 11:30:00,
2013-07-08 07:40:00,65.9,64.4,30.19,WNW,288,0.0,0.0,95,0.00,,,0.00,Wunderground v.1.15,2013-07-08 11:40:00,
2013-07-08 07:45:00,66.0,64.5,30.19,WNW,288,0.0,0.0,95,0.00,,,0.00,Wunderground v.1.15,2013-07-08 11:45:00,
2013-07-08 07:50:00,66.1,64.6,30.19,WNW,288,0.0,0.0,95,0.00,,,0.00,Wunderground v.1.15,2013-07-08 11:50:00,
2013-07-08 08:00:00,66.1,64.6,30.19,WNW,288,0.0,0.0,95,0.00,,,0.00,Wunderground v.1.15,2013-07-08 12:00:00,
2013-07-08 08:05:00,66.2,64.7,30.20,WNW,288,0.0,0.0,95,0.00,,,0.00,Wunderground v.1.15,2013-07-08 12:05:00,
2013-07-08 08:10:00,66.3,64.8,30.20,WNW,288,0.0,0.0,95,0.00,,,0.00,Wunderground v.1.15,2013-07-08 12:10:00,
2013-07-08 08:15:00,66.3,64.8,30.20,WNW,288,0.0,0.0,95,0.00,,,0.00,Wunderground v.1.15,2013-07-08 12:15:00,
2013-07-08 08:25:00,66.6,65.1,30.20,WNW,288,0.0,0.0,95,0.00,,,0.00,Wunderground v.1.15,2013-07-08 12:25:00,
2013-07-08 08:30:00,66.7,65.2,30.20,WNW,288,0.0,0.0,95,0.00,,,0.00,Wunderground v.1.15,2013-07-08 12:30:00,
2013-07-08 08:35:00,66.8,65.3,30.20,WNW,288,0.0,0.0,95,0.00,,,0.00,Wunderground v.1.15,2013-07-08 12:35:00,
2013-07-08 08:45:00,67.2,65.7,30.20,WNW,288,0.0,0.0,95,0.00,,,0.00,Wunderground v.1.15,2013-07-08 12:45:00,
2013-07-08 08:55:00,67.3,65.5,30.20,WNW,288,0.0,0.0,94,0.00,,,0.00,Wunderground v.1.15,2013-07-08 12:55:00,
2013-07-08 09:00:00,67.5,65.7,30.20,WNW,288,0.0,0.0,94,0.00,,,0.00,Wunderground v.1.15,2013-07-08 13:00:00,
2013-07-08 09:10:00,68.0,66.2,30.20,NW,309,0.0,0.0,94,0.00,,,0.00,Wunderground v.1.15,2013-07-08 13:10:00,
2013-07-08 09:15:00,68.0,65.6,30.20,West,281,1.0,4.0,92,0.00,,,0.00,Wunderground v.1.15,2013-07-08 13:15:00,
2013-07-08 09:20:00,68.1,65.7,30.20,NNW,348,2.0,2.0,92,0.00,,,0.00,Wunderground v.1.15,2013-07-08 13:20:00,
2013-07-08 09:25:00,68.4,65.7,30.21,NW,306,1.0,2.0,91,0.00,,,0.00,Wunderground v.1.15,2013-07-08 13:25:00,
2013-07-08 09:30:00,68.6,65.9,30.21,WNW,292,1.0,1.0,91,0.00,,,0.00,Wunderground v.1.15,2013-07-08 13:30:00,
2013-07-08 09:40:00,69.0,65.9,30.21,WNW,286,1.0,3.0,90,0.00,,,0.00,Wunderground v.1.15,2013-07-08 13:40:00,
2013-07-08 09:45:00,69.3,66.2,30.21,WNW,286,1.0,3.0,90,0.00,,,0.00,Wunderground v.1.15,2013-07-08 13:45:00,
2013-07-08 09:55:00,70.0,66.9,30.21,WNW,292,0.0,1.0,90,0.00,,,0.00,Wunderground v.1.15,2013-07-08 13:55:00,
2013-07-08 10:00:00,70.1,66.7,30.21,NNW,337,1.0,1.0,89,0.00,,,0.00,Wunderground v.1.15,2013-07-08 14:00:00,
2013-07-08 10:05:00,70.3,66.9,30.21,WNW,300,1.0,1.0,89,0.00,,,0.00,Wunderground v.1.15,2013-07-08 14:05:00,
2013-07-08 10:10:00,70.4,66.7,30.21,NNW,339,1.0,1.0,88,0.00,,,0.00,Wunderground v.1.15,2013-07-08 14:10:00,
2013-07-08 10:15:00,70.8,67.1,30.21,NNW,339,0.0,1.0,88,0.00,,,0.00,Wunderground v.1.15,2013-07-08 14:15:00,
2013-07-08 10:25:00,71.2,67.1,30.21,NNW,335,0.0,0.0,87,0.00,,,0.00,Wunderground v.1.15,2013-07-08 14:25:00,
2013-07-08 10:30:00,71.5,67.4,30.21,WNW,290,0.0,0.0,87,0.00,,,0.00,Wunderground v.1.15,2013-07-08 14:30:00,
2013-07-08 10:35:00,71.5,67.1,30.21,NW,311,1.0,1.0,86,0.00,,,0.00,Wunderground v.1.15,2013-07-08 14:35:00,
2013-07-08 10:45:00,71.5,67.1,30.21,WNW,290,1.0,2.0,86,0.00,,,0.00,Wunderground v.1.15,2013-07-08 14:45:00,
2013-07-08 10:55:00,72.0,67.2,30.21,NW,311,1.0,2.0,85,0.00,,,0.00,Wunderground v.1.15,2013-07-08 14:55:00,
2013-07-08 11:00:00,72.0,67.6,30.22,NNW,333,1.0,1.0,86,0.00,,,0.00,Wunderground v.1.15,2013-07-08 15:00:00,
2013-07-08 11:10:00,72.7,68.3,30.22,NNW,329,1.0,2.0,86,0.00,,,0.00,Wunderground v.1.15,2013-07-08 15:10:00,
2013-07-08 11:15:00,73.0,67.9,30.22,WNW,295,2.0,2.0,84,0.00,,,0.00,Wunderground v.1.15,2013-07-08 15:15:00,
2013-07-08 11:25:00,73.3,67.8,30.21,WSW,258,2.0,2.0,83,0.00,,,0.00,Wunderground v.1.15,2013-07-08 15:25:00,
2013-07-08 11:30:00,74.0,68.9,30.21,WNW,291,2.0,3.0,84,0.00,,,0.00,Wunderground v.1.15,2013-07-08 15:30:00,
2013-07-08 11:40:00,74.5,68.6,30.21,WNW,294,3.0,3.0,82,0.00,,,0.00,Wunderground v.1.15,2013-07-08 15:40:00,
2013-07-08 11:45:00,74.7,67.4,30.21,WNW,300,3.0,3.0,78,0.00,,,0.00,Wunderground v.1.15,2013-07-08 15:45:00,
2013-07-08 11:50:00,75.3,69.1,30.21,WNW,297,3.0,5.0,81,0.00,,,0.00,Wunderground v.1.15,2013-07-08 15:50:00,
2013-07-08 11:55:00,75.7,69.5,30.21,NNW,342,2.0,5.0,81,0.00,,,0.00,Wunderground v.1.15,2013-07-08 15:55:00,
2013-07-08 12:00:00,76.0,69.0,30.21,West,275,2.0,2.0,79,0.00,,,0.00,Wunderground v.1.15,2013-07-08 16:00:00,
2013-07-08 12:10:00,76.7,68.2,30.20,SSE,158,1.0,1.0,75,0.00,,,0.00,Wunderground v.1.15,2013-07-08 16:10:00,
2013-07-08 12:15:00,77.6,70.2,30.20,WNW,284,1.0,5.0,78,0.00,,,0.00,Wunderground v.1.15,2013-07-08 16:15:00,
2013-07-08 12:25:00,77.6,69.4,30.20,WSW,252,2.0,3.0,76,0.00,,,0.00,Wunderground v.1.15,2013-07-08 16:25:00,
2013-07-08 12:30:00,78.1,70.3,30.20,WNW,296,2.0,2.0,77,0.00,,,0.00,Wunderground v.1.15,2013-07-08 16:30:00,
2013-07-08 12:35:00,78.4,69.0,30.20,WNW,290,1.0,2.0,73,0.00,,,0.00,Wunderground v.1.15,2013-07-08 16:35:00,
2013-07-08 12:40:00,78.7,68.9,30.20,NNW,328,1.0,1.0,72,0.00,,,0.00,Wunderground v.1.15,2013-07-08 16:40:00,
2013-07-08 12:45:00,79.1,67.6,30.19,NW,323,1.0,1.0,68,0.00,,,0.00,Wunderground v.1.15,2013-07-08 16:45:00,
2013-07-08 12:55:00,79.1,69.7,30.19,West,277,1.0,2.0,73,0.00,,,0.00,Wunderground v.1.15,2013-07-08 16:55:00,
2013-07-08 13:00:00,79.3,68.2,30.19,WSW,254,1.0,1.0,69,0.00,,,0.00,Wunderground v.1.15,2013-07-08 17:00:00,
2013-07-08 13:10:00,79.7,67.3,30.19,NE,46,2.0,2.0,66,0.00,,,0.00,Wunderground v.1.15,2013-07-08 17:10:00,
2013-07-08 13:15:00,79.8,68.7,30.19,West,281,1.0,2.0,69,0.00,,,0.00,Wunderground v.1.15,2013-07-08 17:15:00,
2013-07-08 13:25:00,80.3,68.8,30.18,NW,314,1.0,3.0,68,0.00,,,0.00,Wunderground v.1.15,2013-07-08 17:25:00,
2013-07-08 13:30:00,80.4,67.1,30.18,West,268,2.0,2.0,64,0.00,,,0.00,Wunderground v.1.15,2013-07-08 17:30:00,
2013-07-08 13:40:00,80.8,65.1,30.19,WSW,252,1.0,1.0,59,0.00,,,0.00,Wunderground v.1.15,2013-07-08 17:40:00,
2013-07-08 13:50:00,80.2,66.5,30.18,WNW,300,1.0,1.0,63,0.00,,,0.00,Wunderground v.1.15,2013-07-08 17:50:00,
2013-07-08 13:55:00,79.9,68.0,30.18,WNW,300,1.0,1.0,67,0.00,,,0.00,Wunderground v.1.15,2013-07-08 17:55:00,
2013-07-08 14:00:00,79.8,70.4,30.17,WNW,297,0.0,3.0,73,0.00,,,0.00,Wunderground v.1.15,2013-07-08 18:00:00,
2013-07-08 14:10:00,80.4,72.1,30.17,WNW,299,0.0,1.0,76,0.00,,,0.00,Wunderground v.1.15,2013-07-08 18:10:00,
2013-07-08 14:15:00,80.7,67.8,30.17,NNW,338,1.0,1.0,65,0.00,,,0.00,Wunderground v.1.15,2013-07-08 18:15:00,
2013-07-08 14:25:00,81.5,69.5,30.17,WNW,284,1.0,2.0,67,0.00,,,0.00,Wunderground v.1.15,2013-07-08 18:25:00,
2013-07-08 14:45:00,80.1,69.8,30.17,NNW,340,2.0,2.0,71,0.00,,,0.00,Wunderground v.1.15,2013-07-08 18:45:00,
2013-07-08 14:55:00,80.9,68.5,30.16,North,350,2.0,2.0,66,0.00,,,0.00,Wunderground v.1.15,2013-07-08 18:55:00,
2013-07-08 15:00:00,81.9,69.4,30.16,North,11,1.0,1.0,66,0.00,,,0.00,Wunderground v.1.15,2013-07-08 19:00:00,
2013-07-08 15:10:00,82.3,69.8,30.16,NNW,335,2.0,2.0,66,0.00,,,0.00,Wunderground v.1.15,2013-07-08 19:10:00,
2013-07-08 15:15:00,82.0,68.2,30.16,NNW,341,3.0,3.0,63,0.00,,,0.00,Wunderground v.1.15,2013-07-08 19:15:00,
2013-07-08 15:25:00,81.7,66.9,30.16,North,360,3.0,4.0,61,0.00,,,0.00,Wunderground v.1.15,2013-07-08 19:25:00,
2013-07-08 15:35:00,82.3,70.2,30.16,NW,318,1.0,2.0,67,0.00,,,0.00,Wunderground v.1.15,2013-07-08 19:35:00,
2013-07-08 15:40:00,83.0,70.9,30.15,North,355,1.0,1.0,67,0.00,,,0.00,Wunderground v.1.15,2013-07-08 19:40:00,
2013-07-08 15:50:00,83.4,67.6,30.15,WSW,256,2.0,2.0,59,0.00,,,0.00,Wunderground v.1.15,2013-07-08 19:50:00,
2013-07-08 15:55:00,83.3,68.0,30.15,NNW,327,2.0,2.0,60,0.00,,,0.00,Wunderground v.1.15,2013-07-08 19:55:00,
2013-07-08 16:05:00,83.2,67.4,30.14,NNW,336,1.0,1.0,59,0.00,,,0.00,Wunderground v.1.15,2013-07-08 20:05:00,
2013-07-08 16:10:00,83.3,69.8,30.14,NNW,336,1.0,1.0,64,0.00,,,0.00,Wunderground v.1.15,2013-07-08 20:10:00,
2013-07-08 16:20:00,82.7,71.5,30.14,West,279,1.0,1.0,69,0.00,,,0.00,Wunderground v.1.15,2013-07-08 20:20:00,
2013-07-08 16:25:00,82.8,73.3,30.14,West,279,0.0,1.0,73,0.00,,,0.00,Wunderground v.1.15,2013-07-08 20:25:00,
2013-07-08 16:30:00,82.9,74.2,30.13,NW,321,0.0,0.0,75,0.00,,,0.00,Wunderground v.1.15,2013-07-08 20:30:00,
2013-07-08 16:40:00,83.3,66.5,30.13,WNW,292,2.0,2.0,57,0.00,,,0.00,Wunderground v.1.15,2013-07-08 20:40:00,
2013-07-08 16:45:00,83.6,68.7,30.13,WSW,249,1.0,2.0,61,0.00,,,0.00,Wunderground v.1.15,2013-07-08 20:45:00,
2013-07-08 16:55:00,83.6,67.8,30.13,SW,231,1.0,2.0,59,0.00,,,0.00,Wunderground v.1.15,2013-07-08 20:55:00,
2013-07-08 17:00:00,83.2,69.8,30.12,North,355,1.0,1.0,64,0.00,,,0.00,Wunderground v.1.15,2013-07-08 21:00:00,
2013-07-08 17:10:00,83.9,69.5,30.12,WNW,292,1.0,1.0,62,0.00,,,0.00,Wunderground v.1.15,2013-07-08 21:10:00,
2013-07-08 17:25:00,83.1,68.7,30.12,NNW,329,1.0,1.0,62,0.00,,,0.00,Wunderground v.1.15,2013-07-08 21:25:00,
2013-07-08 17:35:00,82.5,68.6,30.11,WNW,299,1.0,2.0,63,0.00,,,0.00,Wunderground v.1.15,2013-07-08 21:35:00,
2013-07-08 17:40:00,82.5,71.3,30.11,WNW,302,1.0,1.0,69,0.00,,,0.00,Wunderground v.1.15,2013-07-08 21:40:00,
2013-07-08 17:45:00,82.5,70.4,30.11,WNW,302,0.0,2.0,67,0.00,,,0.00,Wunderground v.1.15,2013-07-08 21:45:00,
2013-07-08 18:00:00,80.0,70.6,30.11,WNW,302,0.0,0.0,73,0.00,,,0.00,Wunderground v.1.15,2013-07-08 22:00:00,
2013-07-08 18:10:00,79.6,71.4,30.11,SW,223,0.0,0.0,76,0.00,,,0.00,Wunderground v.1.15,2013-07-08 22:10:00,
2013-07-08 18:15:00,79.5,70.9,30.11,SW,223,0.0,0.0,75,0.00,,,0.00,Wunderground v.1.15,2013-07-08 22:15:00,
2013-07-08 18:20:00,79.6,71.8,30.11,SW,223,0.0,0.0,77,0.00,,,0.00,Wunderground v.1.15,2013-07-08 22:20:00,
2013-07-08 18:25:00,78.9,71.1,30.11,SW,223,0.0,0.0,77,0.00,,,0.00,Wunderground v.1.15,2013-07-08 22:25:00,
2013-07-08 18:40:00,76.9,70.6,30.11,SW,223,0.0,0.0,81,0.00,,,0.00,Wunderground v.1.15,2013-07-08 22:40:00,
2013-07-08 18:45:00,76.4,70.1,30.11,SW,223,0.0,0.0,81,0.00,,,0.00,Wunderground v.1.15,2013-07-08 22:45:00,
2013-07-08 18:55:00,75.6,69.0,30.11,SW,223,0.0,0.0,80,0.00,,,0.00,Wunderground v.1.15,2013-07-08 22:55:00,
2013-07-08 19:25:00,74.5,69.0,30.12,SW,223,0.0,0.0,83,0.00,,,0.00,Wunderground v.1.15,2013-07-08 23:25:00,
2013-07-08 19:30:00,74.4,68.9,30.12,SW,223,0.0,0.0,83,0.00,,,0.00,Wunderground v.1.15,2013-07-08 23:30:00,
2013-07-08 19:40:00,74.1,69.3,30.12,SW,223,0.0,0.0,85,0.00,,,0.00,Wunderground v.1.15,2013-07-08 23:40:00,
2013-07-08 19:55:00,73.3,67.8,30.12,SW,223,0.0,0.0,83,0.00,,,0.00,Wunderground v.1.15,2013-07-08 23:55:00,
2013-07-08 20:00:00,73.0,67.5,30.12,SW,223,0.0,0.0,83,0.00,,,0.00,Wunderground v.1.15,2013-07-09 00:00:00,
2013-07-08 20:10:00,72.7,67.2,30.12,SW,223,0.0,0.0,83,0.00,,,0.00,Wunderground v.1.15,2013-07-09 00:10:00,
2013-07-08 20:15:00,72.5,67.0,30.12,SW,223,0.0,0.0,83,0.00,,,0.00,Wunderground v.1.15,2013-07-09 00:15:00,
2013-07-08 20:35:00,71.9,67.5,30.13,SW,223,0.0,0.0,86,0.00,,,0.00,Wunderground v.1.15,2013-07-09 00:35:00,
2013-07-08 20:40:00,71.6,67.2,30.13,SW,223,0.0,0.0,86,0.00,,,0.00,Wunderground v.1.15,2013-07-09 00:40:00,
2013-07-08 20:45:00,71.4,67.0,30.13,SW,223,0.0,0.0,86,0.00,,,0.00,Wunderground v.1.15,2013-07-09 00:45:00,
2013-07-08 20:50:00,71.1,66.7,30.13,SW,223,0.0,0.0,86,0.00,,,0.00,Wunderground v.1.15,2013-07-09 00:50:00,
2013-07-08 20:55:00,70.9,66.8,30.13,SW,223,0.0,0.0,87,0.00,,,0.00,Wunderground v.1.15,2013-07-09 00:55:00,
2013-07-08 21:05:00,70.5,66.4,30.13,SW,223,0.0,0.0,87,0.00,,,0.00,Wunderground v.1.15,2013-07-09 01:05:00,
2013-07-08 21:15:00,70.1,66.4,30.14,SW,223,0.0,0.0,88,0.00,,,0.00,Wunderground v.1.15,2013-07-09 01:15:00,
2013-07-08 21:20:00,69.8,66.4,30.14,SW,223,0.0,0.0,89,0.00,,,0.00,Wunderground v.1.15,2013-07-09 01:20:00,
2013-07-08 21:25:00,69.5,66.1,30.14,SW,223,0.0,0.0,89,0.00,,,0.00,Wunderground v.1.15,2013-07-09 01:25:00,
2013-07-08 21:30:00,69.3,65.9,30.14,SW,223,0.0,0.0,89,0.00,,,0.00,Wunderground v.1.15,2013-07-09 01:30:00,
2013-07-08 21:40:00,68.7,65.6,30.15,SW,223,0.0,0.0,90,0.00,,,0.00,Wunderground v.1.15,2013-07-09 01:40:00,
2013-07-08 21:45:00,68.5,65.4,30.15,SW,223,0.0,0.0,90,0.00,,,0.00,Wunderground v.1.15,2013-07-09 01:45:00,
2013-07-08 21:55:00,68.1,65.1,30.15,SW,223,0.0,0.0,90,0.00,,,0.00,Wunderground v.1.15,2013-07-09 01:55:00,
2013-07-08 22:00:00,67.9,64.9,30.15,SW,223,0.0,0.0,90,0.00,,,0.00,Wunderground v.1.15,2013-07-09 02:00:00,
2013-07-08 22:10:00,67.5,64.8,30.16,SW,223,0.0,0.0,91,0.00,,,0.00,Wunderground v.1.15,2013-07-09 02:10:00,
2013-07-08 22:15:00,67.4,64.7,30.16,SW,223,0.0,0.0,91,0.00,,,0.00,Wunderground v.1.15,2013-07-09 02:15:00,
2013-07-08 22:25:00,67.1,64.4,30.16,SW,223,0.0,0.0,91,0.00,,,0.00,Wunderground v.1.15,2013-07-09 02:25:00,
2013-07-08 22:40:00,66.7,64.3,30.16,SW,223,0.0,0.0,92,0.00,,,0.00,Wunderground v.1.15,2013-07-09 02:40:00,
2013-07-08 22:45:00,66.5,64.1,30.17,SW,223,0.0,0.0,92,0.00,,,0.00,Wunderground v.1.15,2013-07-09 02:45:00,
2013-07-08 22:55:00,66.2,63.8,30.17,SW,223,0.0,0.0,92,0.00,,,0.00,Wunderground v.1.15,2013-07-09 02:55:00,
2013-07-08 23:00:00,66.1,63.7,30.17,SW,223,0.0,0.0,92,0.00,,,0.00,Wunderground v.1.15,2013-07-09 03:00:00,
2013-07-08 23:10:00,65.9,63.5,30.17,SW,223,0.0,0.0,92,0.00,,,0.00,Wunderground v.1.15,2013-07-09 03:10:00,
2013-07-08 23:15:00,65.8,63.4,30.17,SW,223,0.0,0.0,92,0.00,,,0.00,Wunderground v.1.15,2013-07-09 03:15:00,
2013-07-08 23:20:00,65.7,63.3,30.17,SW,223,0.0,0.0,92,0.00,,,0.00,Wunderground v.1.15,2013-07-09 03:20:00,
2013-07-08 23:25:00,65.6,63.2,30.17,SW,223,0.0,0.0,92,0.00,,,0.00,Wunderground v.1.15,2013-07-09 03:25:00,
2013-07-08 23:30:00,65.4,63.0,30.17,SW,223,0.0,0.0,92,0.00,,,0.00,Wunderground v.1.15,2013-07-09 03:30:00,
2013-07-08 23:40:00,65.1,62.7,30.17,SW,223,0.0,0.0,92,0.00,,,0.00,Wunderground v.1.15,2013-07-09 03:40:00,
2013-07-08 23:45:00,65.0,62.6,30.17,SW,223,0.0,0.0,92,0.00,,,0.00,Wunderground v.1.15,2013-07-09 03:45:00,
2013-07-08 23:55:00,64.7,62.3,30.17,SW,223,0.0,1.0,92,0.00,,,0.00,Wunderground v.1.15,2013-07-09 03:55:00,